Location: Newark
(45.7167°N, 7.8833°E)
Time: 11:38:00
(UTC+00:00)

ISS - Pass Details

Date: 07 April 2020
Orbit: 417 x 419 km, 51.6° (Epoch: 03 June)

Event Time Altitude Azimuth Distance (km) Brightness Sun altitude
Rises 18:59:53 0° 284° (WNW) 2,364 2.2 -10.0°
Reaches altitude 10° 19:03:04 10° 251° (WSW) 1,494 -0.2 -10.5°
Maximum altitude 19:04:22 12° 228° (SW) 1,382 -0.8 -10.7°
Drops below altitude 10° 19:05:41 10° 205° (SSW) 1,489 -0.9 -10.9°
Enters shadow 19:08:31 - 174° (S) 2,237 -0.4 -11.4°
